Regional Weather Roundup
Issued by NWS

Home | Current Version | Previous Version | Graphics & Text | Print | Product List | Glossary On
Versions: 1 2 3 4 5 6 7 8 9 10 11 12 13 14 15 16 17 18 19 20 21 22 23 24 25 26 27 28 29 30 31 32 33 34 35 36 37 38 39 40 41 42 43 44 45 46 47 48 49 50
000
ASUS43 KLOT 101510
RWRIL

ILLINOIS REGIONAL WEATHER ROUNDUP
NATIONAL WEATHER SERVICE CHICAGO/ROMEOVILLE IL
1000 AM CDT THU JUL 10 2014

NOTE: "FAIR" INDICATES FEW OR NO CLOUDS BELOW 12,000 FEET WITH NO
SIGNIFICANT WEATHER AND/OR OBSTRUCTIONS TO VISIBILITY.

* THESE STATIONS ARE NOT UNDER NWS QUALITY CONTROL. THEY ALSO MAY NOT
  REPORT WEATHER SUCH AS PRECIPITATION OR FOG.

ILZ001-002-007-009-015-016-024-101600-
NORTHWEST ILLINOIS

CITY           SKY/WX    TMP DP  RH WIND       PRES   REMARKS
MOLINE         SUNNY     74  60  61 S7        30.15S
STERLING*      PTSUNNY   73  57  56 SW6       30.18R
SAVANNA*       MOSUNNY   73  57  58 SE6       30.17R
$$

ILZ003-004-008-010-011-017-018-101600-
NORTH CENTRAL ILLINOIS

CITY           SKY/WX    TMP DP  RH WIND       PRES   REMARKS
ROCKFORD       MOSUNNY   72  57  59 S7        30.18S
FREEPORT*      MOSUNNY   71  60  68 SW8       30.19S
ROCHELLE*      SUNNY     72  56  56 S6        30.18R
DE KALB*       SUNNY     70  56  60 SW5       30.19R
PERU*          SUNNY     73  56  55 S6        30.18R
$$

ILZ005-006-012>014-019>023-101600-
NORTHEAST ILLINOIS

CITY           SKY/WX    TMP DP  RH WIND       PRES   REMARKS
CHICAGO-OHARE  MOSUNNY   73  52  47 CALM      30.17R
CHICAGO-MIDWAY MOSUNNY   73  57  57 VRB3      30.17R
AURORA         SUNNY     72  55  55 SW5       30.18R
LANSING*       PTSUNNY   70  55  57 CALM      30.18R
JOLIET*        SUNNY     72  52  49 CALM      30.18R
WAUKEGAN       SUNNY     67  56  67 VRB6      30.18R
DUPAGE AIRPORT SUNNY     73  56  54 CALM      30.17R
KANKAKEE*      SUNNY     72  55  54 CALM      30.18R
WHEELING       SUNNY     72  57  59 CALM      30.19R
MORRIS*        SUNNY     73  58  59 CALM      30.18R
ROMEOVILLE*    SUNNY     71  54  55 CALM      30.17S
NORTHERLY ISL    N/A     67  60  78 E6          N/A
$$

LMZ740>746-101600-
SOUTHERN LAKE MICHIGAN

STATION/POSITION SKY/WX   TEMP    WIND        PRES    VSBY  WAVE
                          AIR SEA DIR/SP/G                  HT/PER
                          (F)     (DEG/KT/KT) (MB)    (MI)  (FT/S)
SOUTHERN BUOY              57 56   80/  4/  6 1022.1R         0
WAUKEGAN HARBOR            65     130/  3/  3 1023.0S
HARRISON CRIB              65      90/  7/  8   N/A
BURNHAM HARBOR             67      70/  5/  7   N/A
CALUMET HARBOR             67      50/  8/  9 1022.6R
MICHIGAN CITY              66      20/  6/  7   N/A
$$

ILZ025>027-034>036-040-047-049-050-058-095>099-101600-
WEST-CENTRAL ILLINOIS

CITY           SKY/WX    TMP DP  RH WIND       PRES   REMARKS
QUINCY         SUNNY     75  60  59 SE7       30.15F
GALESBURG*     PTSUNNY   73  62  68 S6        30.17S
MACOMB*        SUNNY     72  61  67 S5        30.20R
JACKSONVILLE*  SUNNY     76  61  58 SE5       30.17F
PITTSFIELD*    SUNNY     75  60  60 SE5       30.17F
$$

ILZ028>032-037-038-041>044-048-051>054-059>061-101600-
CENTRAL ILLINOIS

CITY           SKY/WX    TMP DP  RH WIND       PRES   REMARKS
PONTIAC        SUNNY     73  59  60 CALM      30.18R
BLOOMINGTON    SUNNY     71  55  56 E6        30.19R
DECATUR        SUNNY     74  60  61 E6        30.17R
PEORIA         MOSUNNY   75  58  55 SE6       30.18R
LACON*         MOSUNNY   73  56  57 CALM      30.17R
LINCOLN*       SUNNY     76  59  55 SE5       30.15S
SPRINGFIELD    SUNNY     77  60  55 VRB5      30.17R
TAYLORVILLE    SUNNY     73  61  64 SE5       30.17R
$$

ILZ033-039-045-046-055>057-062-063-101600-
EAST-CENTRAL ILLINOIS

CITY           SKY/WX    TMP DP  RH WIND       PRES   REMARKS
CHAMPAIGN      SUNNY     74  59  59 E5        30.17S
RANTOUL*       SUNNY     74  56  52 E5        30.19R
MATTOON        SUNNY     75  59  57 NE8       30.16R
PARIS*         SUNNY     73  61  65 CALM      30.17S
$$

ILZ079-100>102-101600-
SOUTHWEST ILLINOIS

CITY           SKY/WX    TMP DP  RH WIND       PRES   REMARKS
ALTON          SUNNY     75  64  69 NE6       30.16S
CAHOKIA*       SUNNY     77  61  57 E6        30.14F
SPARTA*        SUNNY     73  61  64 E5        30.14S
$$

ILZ064>066-069>071-074>076-080>082-084>086-088>090-092>094-101600-
SOUTH-CENTRAL ILLINOIS

CITY           SKY/WX    TMP DP  RH WIND       PRES   REMARKS
CARBONDALE     SUNNY     77  61  57 NE5       30.13S
CAIRO*         SUNNY     81  64  54 E6        30.10S HX  83
MARION         MOSUNNY   77  63  61 NE6       30.14S
MT. VERNON     SUNNY     75  61  60 NE7       30.15S
CENTRALIA*     SUNNY     78  58  50 NE6       30.15S
SALEM*         SUNNY     78  62  58 CALM      30.15S HX  80
METROPOLIS*    SUNNY     80  58  46 E5        30.11R HX  80
$$

ILZ067-068-072-073-078-083-087-091-101600-
SOUTHEAST ILLINOIS

CITY           SKY/WX    TMP DP  RH WIND       PRES   REMARKS
FLORA*         SUNNY     76  61  59 CALM      30.15S
HARRISBURG*    SUNNY     77  64  65 NE3       30.14S
ROBINSON*      SUNNY     76  64  65 NE5       30.16R
CARMI*         SUNNY     78  64  61 N3        30.13R HX  80
$$

ABBREVIATIONS USED IN REMARKS
   TC - TEMPERATURE IN CELSIUS
  WCI - WIND CHILL INDEX
   HX - HEAT INDEX
  VSB - VISIBILITY
$$



USA.gov is the U.S. government's official web portal to all federal, state and local government web resources and services.